User: anonymous   Login
Location: Caltech
(34.1382°N, 118.1253°W)
Time: 18:27:50
(UTC-08:00)
Language:

SO-50 - Orbit

View from above orbital plane
View from above orbital plane
View from above satellite
View from above satellite

Ground track
Ground track

The orbit data is extracted from the following two-line orbital elements,

1 27607U 02058C   16337.15052400  .00000226  00000-0  32603-4 0  9992
2 27607  64.5576   7.6449 0048062 176.3920 183.8033 14.75256208750047
Epoch (UTC): 02 December 2016 03:36:45
Eccentricity: 0.0048062
inclination: 64.5576°
perigee height: 610 km
apogee height: 678 km
right ascension of ascending node: 7.6449°
argument of perigee: 176.3920°
revolutions per day: 14.75256208
mean anomaly at epoch: 183.8033°
orbit number at epoch: 75004

The dashed part of the orbit path shows where the satellite is in the earth's shadow,  

DLR